Location: Unspecified
(0.0000°N, 0.0000°E)
Time: 11:38:21
(UTC+00:00)

CZ-3C DEB - Pass Details

Date: 17 February 2026
Orbit: 521 x 35552 km, 20.3° (Epoch: 6 July)

Event Time Altitude Azimuth Distance (km) Brightness Sun altitude
Rises 05:02:05 0° 249° (WSW) 19,880 ? -17.6°
Reaches altitude 10° 05:35:08 10° 249° (WSW) 23,563 ? -9.5°
Maximum altitude 10:58:55 38° 331° (NNW) 4,393 ? 67.9°
Drops below altitude 10° 11:08:28 10° 40° (NE) 3,618 ? 69.9°
Sets 11:10:31 0° 51° (NE) 4,057 ? 70.3°
